Regional Weather Roundup
Issued by NWS

Home | Current Version | Previous Version | Text Only | Print | Product List | Glossary Off
Versions: 1 2 3 4 5 6 7 8 9 10 11 12 13 14 15 16 17 18 19 20 21 22 23 24 25 26 27 28 29 30 31 32 33 34 35 36 37 38 39 40 41 42 43 44 45 46 47 48 49 50

000
ASUS44 KMEG 260710
RWRTN
TENNESSEE HOURLY STATE WEATHER ROUNDUP
NATIONAL WEATHER SERVICE MEMPHIS TN
200 AM CDT THU APR 26 2018

TNZ002-004-019-021-049-052-054-088>092-260800-
WEST TENNESSEE

CITY           SKY/WX    TMP DP  RH WIND       PRES   REMARKS
MEMPHIS INTL   LGT RAIN  54  54 100 NW6       29.88F
NWS MEMPHIS      N/A     53 N/A N/A MISG        N/A
JACKSON        LGT RAIN  54  54 100 E5        29.88F FOG
DYERSBURG      LGT RAIN  55  54  96 CALM      29.89F
SOMERVILLE       N/A     54  54 100 NE3       29.84F FOG
COVINGTON      CLOUDY    54  54 100 CALM      29.88F FOG
UNION CITY     CLOUDY    55  54  94 E3        29.88S
BOLIVAR        CLOUDY    54  54 100 NE5       29.86F
PARIS          CLOUDY    54  52  94 CALM      29.88F
HUNTINGDON     CLOUDY    54  54 100 CALM      29.88F
LEXINGTON      CLOUDY    54  54 100 CALM      29.88F
SAVANNAH       MOCLDY    55  54  94 NE5       29.86F
$$

TNZ008-025-027-028-033-062-065-066-260800-
NORTH MIDDLE TENNESSEE

CITY           SKY/WX    TMP DP  RH WIND       PRES   REMARKS
NASHVILLE      CLOUDY    59  51  75 W3        29.88F
PORTLAND       CLOUDY    55  54  94 CALM      29.87F
CLARKSVILLE    FAIR      56  50  80 W5        29.88F
SMYRNA         CLOUDY    58  54  86 NW3       29.89F
COOKEVILLE     MOCLDY    48  48 100 CALM      29.88F
LIVINGSTON     SUNNY     52  48  87 CALM      29.88F
GALLATIN       CLOUDY    57  54  88 CALM      29.90F
CROSSVILLE     FAIR      50  47  89 CALM      29.90F
$$

TNZ061-075-076-078-094-096-097-260800-
SOUTH MIDDLE TENNESSEE

CITY           SKY/WX    TMP DP  RH WIND       PRES   REMARKS
LEWISBURG      CLOUDY    57  54  88 CALM      29.89S
FAYETTEVILLE   CLOUDY    57  55  94 CALM      29.88S
TULLAHOMA      CLOUDY    57  54  88 CALM      29.87F
WINCHESTER     CLOUDY    55  52  88 CALM      29.87F
MCMINNVILLE    CLOUDY    54  52  94 CALM      29.88F
COLUMBIA       CLOUDY    57  54  88 CALM      29.88F
SHELBYVILLE    CLOUDY    55  54  94 SW3       29.88F
$$

TNZ017-018-042-046-047-260800-
NORTHEAST TENNESSEE

CITY           SKY/WX    TMP DP  RH WIND       PRES   REMARKS
TRI CITIES     CLOUDY    54  51  90 NW3       29.92S
ELIZABETHTON   CLOUDY    55  52  88 SW3       29.91F
$$

TNZ012-013-036-069-073-074-260800-
CENTRAL EAST TENNESSEE

CITY           SKY/WX    TMP DP  RH WIND       PRES   REMARKS
KNOXVILLE      CLOUDY    53  52  96 NE5       29.89F
OAK RIDGE      FAIR      53  52  96 CALM      29.91F
DOWNTOWN KNOXV CLEAR     54  54 100 CALM      29.91F
GATLINBURG     CLEAR     54  52  94 CALM      29.91F
MORRISTOWN     PTCLDY    52  52 100 CALM      29.91F
JACKSBORO      CLEAR     50  50 100 CALM      29.94F
$$

TNZ083-085-099-260800-
SOUTHEAST TENNESSEE

CITY           SKY/WX    TMP DP  RH WIND       PRES   REMARKS
CHATTANOOGA    FAIR      54  51  90 CALM      29.89F
DAYTON         SUNNY     52  52 100 CALM      29.89F
$$

SKY/WX REPORTED AS FAIR MEANS FEW OR NO CLOUDS BELOW
12 THOUSAND FEET.





USA.gov is the U.S. government's official web portal to all federal, state and local government web resources and services.